SAS63J EKCH-EDDL

Flight info

Callsign SAS63J
Flight time 1h 7m
Altitude 36000
Route NEXEN T503 GIMRU DCT MICOS DCT KEGAB DCT DENOL T851 HALME HALME1A
Aircraft E195/M-SDE3GILORVW/S

Departure

Time 2026-05-05 17:03
Airport Copenhagen Kastrup Airport (EKCH)

Arrival

Time 2026-05-05 18:10
Airport Düsseldorf Airport (EDDL)
Time Latitude Longitude Altitude Speed Heading
2026-05-05 16:42 55.62712 12.65322 17 ft 0 kts 17°
2026-05-05 16:53 55.62702 12.65317 17 ft 2 kts 10°
2026-05-05 16:53 55.62687 12.65314 17 ft 2 kts
2026-05-05 16:54 55.62672 12.65315 17 ft 2 kts 357°
2026-05-05 16:54 55.62658 12.65316 17 ft 2 kts 359°
2026-05-05 16:54 55.62643 12.65317 17 ft 2 kts 358°
2026-05-05 16:54 55.62627 12.65318 17 ft 2 kts 359°
2026-05-05 16:55 55.62613 12.65319 17 ft 2 kts 358°
2026-05-05 16:55 55.62598 12.65319 17 ft 2 kts 358°
2026-05-05 16:55 55.62592 12.65320 17 ft 0 kts 358°
2026-05-05 16:57 55.62593 12.65320 17 ft 0 kts 358°
2026-05-05 16:57 55.62601 12.65319 17 ft 2 kts 358°
2026-05-05 16:57 55.62623 12.65317 17 ft 4 kts 350°
2026-05-05 16:57 55.62651 12.65270 17 ft 7 kts 280°
2026-05-05 16:58 55.62614 12.65197 17 ft 11 kts 189°
2026-05-05 16:58 55.62524 12.65196 17 ft 14 kts 178°
2026-05-05 16:58 55.62420 12.65203 17 ft 15 kts 178°
2026-05-05 16:58 55.62309 12.65207 17 ft 16 kts 180°
2026-05-05 16:59 55.62189 12.65159 14 ft 19 kts 212°
2026-05-05 16:59 55.62070 12.65019 14 ft 20 kts 214°
2026-05-05 16:59 55.61946 12.64875 14 ft 21 kts 213°
2026-05-05 16:59 55.61819 12.64730 14 ft 22 kts 214°
2026-05-05 17:00 55.61686 12.64577 14 ft 23 kts 213°
2026-05-05 17:00 55.61544 12.64412 14 ft 25 kts 213°
2026-05-05 17:00 55.61393 12.64238 15 ft 26 kts 213°
2026-05-05 17:00 55.61235 12.64057 15 ft 27 kts 213°
2026-05-05 17:01 55.61069 12.63868 15 ft 29 kts 213°
2026-05-05 17:01 55.60920 12.63694 16 ft 13 kts 214°
2026-05-05 17:01 55.60831 12.63593 14 ft 16 kts 207°
2026-05-05 17:01 55.60741 12.63676 14 ft 16 kts 129°
2026-05-05 17:02 55.60682 12.63838 14 ft 14 kts 89°
2026-05-05 17:02 55.60802 12.64066 14 ft 58 kts 41°
2026-05-05 17:02 55.61315 12.64864 14 ft 136 kts 41°
2026-05-05 17:02 55.62130 12.66146 334 ft 172 kts 39°
2026-05-05 17:03 55.63067 12.67595 1123 ft 187 kts 38°
2026-05-05 17:03 55.64017 12.69051 2084 ft 185 kts 38°
2026-05-05 17:03 55.65017 12.70577 2718 ft 200 kts 39°
2026-05-05 17:03 55.66121 12.72284 3125 ft 229 kts 39°
2026-05-05 17:04 55.67416 12.74356 3150 ft 276 kts 47°
2026-05-05 17:04 55.68259 12.77363 3392 ft 273 kts 82°
2026-05-05 17:04 55.67871 12.80500 3469 ft 265 kts 124°
2026-05-05 17:04 55.66410 12.82373 3889 ft 269 kts 158°
2026-05-05 17:05 55.64656 12.83553 4265 ft 273 kts 158°
2026-05-05 17:05 55.62864 12.84758 4546 ft 274 kts 159°
2026-05-05 17:05 55.60955 12.85208 4919 ft 291 kts 192°
2026-05-05 17:05 55.59197 12.83616 5939 ft 290 kts 227°
2026-05-05 17:06 55.58207 12.80645 7192 ft 278 kts 251°
2026-05-05 17:06 55.57571 12.77559 8392 ft 270 kts 249°
2026-05-05 17:06 55.56676 12.74734 9425 ft 269 kts 236°
2026-05-05 17:06 55.55483 12.72190 10263 ft 274 kts 230°
2026-05-05 17:07 55.54141 12.69801 11064 ft 280 kts 227°
2026-05-05 17:07 55.52677 12.67421 11739 ft 290 kts 225°
2026-05-05 17:07 55.51140 12.65032 12393 ft 300 kts 224°
2026-05-05 17:07 55.49544 12.62606 13107 ft 307 kts 224°
2026-05-05 17:08 55.47939 12.60192 13918 ft 309 kts 224°
2026-05-05 17:08 55.46297 12.57733 14763 ft 310 kts 224°
2026-05-05 17:08 55.44667 12.55299 15575 ft 312 kts 224°
2026-05-05 17:08 55.43015 12.52835 16344 ft 314 kts 224°
2026-05-05 17:09 55.41339 12.50342 17102 ft 317 kts 224°
2026-05-05 17:09 55.39655 12.47838 17835 ft 320 kts 224°
2026-05-05 17:09 55.37960 12.45322 18543 ft 322 kts 224°
2026-05-05 17:09 55.36238 12.42768 19260 ft 325 kts 224°
2026-05-05 17:10 55.34522 12.40226 19951 ft 328 kts 224°
2026-05-05 17:10 55.32782 12.37646 20600 ft 329 kts 225°
2026-05-05 17:10 55.31019 12.35023 21106 ft 331 kts 225°
2026-05-05 17:10 55.29273 12.32440 21533 ft 336 kts 224°
2026-05-05 17:11 55.27477 12.29790 21977 ft 339 kts 224°
2026-05-05 17:11 55.25655 12.27108 22454 ft 342 kts 224°
2026-05-05 17:11 55.23838 12.24438 22934 ft 344 kts 224°
2026-05-05 17:11 55.22026 12.21776 23411 ft 346 kts 224°
2026-05-05 17:12 55.20184 12.19076 23880 ft 347 kts 224°
2026-05-05 17:12 55.18319 12.16344 24334 ft 349 kts 224°
2026-05-05 17:12 55.16469 12.13637 24769 ft 351 kts 224°
2026-05-05 17:12 55.14588 12.10889 25204 ft 353 kts 224°
2026-05-05 17:13 55.12700 12.08141 25647 ft 351 kts 224°
2026-05-05 17:13 55.10823 12.05420 25998 ft 356 kts 224°
2026-05-05 17:13 55.08933 12.02672 26469 ft 362 kts 224°
2026-05-05 17:13 55.07000 11.99866 27094 ft 363 kts 224°
2026-05-05 17:14 55.05065 11.97057 27771 ft 363 kts 224°
2026-05-05 17:14 55.03140 11.94266 28396 ft 364 kts 224°
2026-05-05 17:14 55.01182 11.91430 28979 ft 366 kts 224°
2026-05-05 17:14 54.99242 11.88624 29524 ft 369 kts 224°
2026-05-05 17:15 54.97266 11.85770 30046 ft 372 kts 224°
2026-05-05 17:15 54.95262 11.82880 30555 ft 375 kts 224°
2026-05-05 17:15 54.93280 11.80025 31032 ft 377 kts 224°
2026-05-05 17:15 54.91243 11.77093 31443 ft 381 kts 224°
2026-05-05 17:16 54.89189 11.74142 31844 ft 385 kts 224°
2026-05-05 17:16 54.87122 11.71178 32288 ft 388 kts 224°
2026-05-05 17:16 54.85054 11.68215 32817 ft 388 kts 223°
2026-05-05 17:16 54.82980 11.65247 33366 ft 388 kts 223°
2026-05-05 17:17 54.80895 11.62274 33936 ft 387 kts 221°
2026-05-05 17:17 54.78729 11.59558 34444 ft 388 kts 219°
2026-05-05 17:17 54.76546 11.56852 34899 ft 388 kts 219°
2026-05-05 17:17 54.74355 11.54124 35268 ft 388 kts 219°
2026-05-05 17:18 54.72185 11.51423 35640 ft 388 kts 219°
2026-05-05 17:18 54.70005 11.48710 35858 ft 388 kts 219°
2026-05-05 17:18 54.65525 11.43144 35904 ft 407 kts 219°
2026-05-05 17:19 54.60864 11.37373 35900 ft 415 kts 219°
2026-05-05 17:19 54.56189 11.31600 35910 ft 412 kts 218°
2026-05-05 17:20 54.51527 11.25912 35905 ft 412 kts 218°
2026-05-05 17:20 54.46881 11.20261 35914 ft 411 kts 218°
2026-05-05 17:21 54.42242 11.14636 35904 ft 412 kts 218°
2026-05-05 17:22 54.35236 11.06170 35893 ft 410 kts 218°
2026-05-05 17:22 54.30586 11.00570 35897 ft 410 kts 218°
2026-05-05 17:23 54.25916 10.95037 35885 ft 409 kts 218°
2026-05-05 17:23 54.21254 10.89531 35886 ft 409 kts 218°
2026-05-05 17:24 54.16578 10.84023 35881 ft 408 kts 218°
2026-05-05 17:24 54.11915 10.78544 35885 ft 407 kts 218°
2026-05-05 17:25 54.07276 10.73111 35894 ft 406 kts 218°
2026-05-05 17:25 54.02616 10.67667 35887 ft 407 kts 218°
2026-05-05 17:26 53.97971 10.62254 35885 ft 406 kts 218°
2026-05-05 17:26 53.93324 10.56856 35883 ft 405 kts 218°
2026-05-05 17:27 53.88679 10.51474 35885 ft 406 kts 217°
2026-05-05 17:27 53.84037 10.46112 35885 ft 405 kts 217°
2026-05-05 17:28 53.79392 10.40758 35880 ft 406 kts 218°
2026-05-05 17:28 53.74720 10.35390 35877 ft 406 kts 217°
2026-05-05 17:29 53.70065 10.30055 35887 ft 407 kts 217°
2026-05-05 17:29 53.65400 10.24723 35888 ft 407 kts 216°
2026-05-05 17:30 53.60717 10.19386 35886 ft 406 kts 216°
2026-05-05 17:30 53.56059 10.14090 35891 ft 406 kts 216°
2026-05-05 17:31 53.51379 10.08786 35887 ft 405 kts 216°
2026-05-05 17:31 53.46726 10.03525 35886 ft 407 kts 216°
2026-05-05 17:32 53.42052 9.98255 35883 ft 406 kts 216°
2026-05-05 17:32 53.37392 9.93015 35879 ft 406 kts 216°
2026-05-05 17:33 53.32684 9.87736 35877 ft 407 kts 216°
2026-05-05 17:33 53.28019 9.82517 35868 ft 407 kts 216°
2026-05-05 17:34 53.23323 9.77279 35868 ft 407 kts 216°
2026-05-05 17:34 53.18650 9.72081 35861 ft 408 kts 216°
2026-05-05 17:35 53.13937 9.66853 35859 ft 407 kts 216°
2026-05-05 17:35 53.09258 9.61675 35859 ft 406 kts 215°
2026-05-05 17:36 53.04554 9.56484 35854 ft 407 kts 215°
2026-05-05 17:36 52.99844 9.51298 35855 ft 407 kts 215°
2026-05-05 17:37 52.95121 9.46115 35855 ft 406 kts 215°
2026-05-05 17:37 52.90299 9.41237 35849 ft 407 kts 208°
2026-05-05 17:38 52.85230 9.37061 35856 ft 408 kts 208°
2026-05-05 17:38 52.80145 9.32891 35859 ft 407 kts 208°
2026-05-05 17:39 52.75068 9.28739 35852 ft 407 kts 207°
2026-05-05 17:39 52.70017 9.24620 35861 ft 408 kts 207°
2026-05-05 17:40 52.64931 9.20482 35868 ft 407 kts 207°
2026-05-05 17:40 52.59895 9.16396 35865 ft 408 kts 207°
2026-05-05 17:41 52.54789 9.12264 35864 ft 408 kts 207°
2026-05-05 17:41 52.49785 9.08225 35838 ft 391 kts 207°
2026-05-05 17:42 52.44935 9.04320 35845 ft 390 kts 207°
2026-05-05 17:42 52.42486 9.02351 35614 ft 395 kts 206°
2026-05-05 17:42 52.40045 9.00392 35194 ft 393 kts 206°
2026-05-05 17:42 52.37619 8.98448 34705 ft 389 kts 206°
2026-05-05 17:43 52.35199 8.96510 34274 ft 387 kts 206°
2026-05-05 17:43 52.32787 8.94581 33850 ft 389 kts 206°
2026-05-05 17:43 52.30360 8.92642 33417 ft 393 kts 206°
2026-05-05 17:43 52.27910 8.90688 32978 ft 396 kts 206°
2026-05-05 17:44 52.25476 8.88748 32548 ft 398 kts 206°
2026-05-05 17:44 52.22985 8.86766 32100 ft 400 kts 206°
2026-05-05 17:44 52.20470 8.84768 31653 ft 402 kts 206°
2026-05-05 17:44 52.17954 8.82770 31207 ft 405 kts 206°
2026-05-05 17:45 52.15430 8.80770 30765 ft 404 kts 206°
2026-05-05 17:45 52.12922 8.78784 30316 ft 404 kts 206°
2026-05-05 17:45 52.10412 8.76799 29870 ft 401 kts 206°
2026-05-05 17:45 52.07898 8.74814 29428 ft 399 kts 206°
2026-05-05 17:46 52.05387 8.72833 28979 ft 398 kts 206°
2026-05-05 17:46 52.02933 8.70830 28305 ft 401 kts 211°
2026-05-05 17:46 52.00723 8.68200 27909 ft 392 kts 221°
2026-05-05 17:46 51.98891 8.64983 27525 ft 393 kts 232°
2026-05-05 17:47 51.97410 8.61223 27113 ft 396 kts 240°
2026-05-05 17:47 51.96367 8.57148 26692 ft 397 kts 250°
2026-05-05 17:47 51.95614 8.52841 26251 ft 396 kts 252°
2026-05-05 17:47 51.94863 8.48602 25816 ft 394 kts 251°
2026-05-05 17:48 51.94090 8.44334 25381 ft 393 kts 251°
2026-05-05 17:48 51.93327 8.40161 24955 ft 392 kts 251°
2026-05-05 17:48 51.92554 8.35958 24524 ft 390 kts 251°
2026-05-05 17:48 51.91770 8.31702 24087 ft 389 kts 251°
2026-05-05 17:49 51.91004 8.27557 23667 ft 387 kts 251°
2026-05-05 17:49 51.90242 8.23441 23253 ft 385 kts 251°
2026-05-05 17:49 51.89470 8.19283 22845 ft 382 kts 251°
2026-05-05 17:49 51.88714 8.15215 22428 ft 379 kts 251°
2026-05-05 17:50 51.87947 8.11103 21993 ft 378 kts 251°
2026-05-05 17:50 51.87196 8.07085 21586 ft 376 kts 251°
2026-05-05 17:50 51.86439 8.03042 21175 ft 375 kts 251°
2026-05-05 17:50 51.85692 7.99062 20764 ft 373 kts 251°
2026-05-05 17:51 51.84945 7.95090 20349 ft 372 kts 251°
2026-05-05 17:51 51.84189 7.91076 19947 ft 371 kts 251°
2026-05-05 17:51 51.83448 7.87151 19844 ft 368 kts 251°
2026-05-05 17:51 51.82690 7.83152 19437 ft 377 kts 251°
2026-05-05 17:52 51.81934 7.79161 18878 ft 371 kts 251°
2026-05-05 17:52 51.81185 7.75219 18429 ft 365 kts 251°
2026-05-05 17:52 51.80447 7.71344 18009 ft 361 kts 251°
2026-05-05 17:52 51.79707 7.67467 17604 ft 360 kts 251°
2026-05-05 17:53 51.78973 7.63629 17202 ft 359 kts 252°
2026-05-05 17:53 51.78245 7.59828 16795 ft 358 kts 251°
2026-05-05 17:53 51.77505 7.55973 16371 ft 356 kts 252°
2026-05-05 17:53 51.76787 7.52242 15997 ft 353 kts 252°
2026-05-05 17:54 51.76053 7.48434 15673 ft 351 kts 252°
2026-05-05 17:54 51.75332 7.44699 15337 ft 350 kts 252°
2026-05-05 17:54 51.74611 7.40977 15003 ft 348 kts 252°
2026-05-05 17:54 51.73885 7.37233 14726 ft 346 kts 252°
2026-05-05 17:55 51.73145 7.33422 14442 ft 345 kts 251°
2026-05-05 17:55 51.72446 7.29831 14094 ft 344 kts 251°
2026-05-05 17:55 51.71740 7.26209 13735 ft 341 kts 251°
2026-05-05 17:55 51.71030 7.22632 13383 ft 338 kts 248°
2026-05-05 17:56 51.69749 7.19523 13031 ft 334 kts 221°
2026-05-05 17:56 51.67886 7.17273 12706 ft 333 kts 214°
2026-05-05 17:56 51.66000 7.15193 12652 ft 330 kts 214°
2026-05-05 17:56 51.64095 7.13094 12667 ft 332 kts 214°
2026-05-05 17:57 51.62184 7.10983 12492 ft 335 kts 214°
2026-05-05 17:57 51.60269 7.08871 12273 ft 331 kts 214°
2026-05-05 17:57 51.58379 7.06783 12326 ft 331 kts 214°
2026-05-05 17:57 51.56492 7.04695 12334 ft 331 kts 214°
2026-05-05 17:58 51.54580 7.02585 12330 ft 332 kts 214°
2026-05-05 17:58 51.52703 7.00524 12328 ft 331 kts 214°
2026-05-05 17:58 51.50790 6.98412 12335 ft 331 kts 216°
2026-05-05 17:58 51.49234 6.95748 12346 ft 332 kts 231°
2026-05-05 17:59 51.47789 6.92817 12317 ft 332 kts 231°
2026-05-05 17:59 51.46381 6.89967 12191 ft 321 kts 231°
2026-05-05 17:59 51.45030 6.87243 11861 ft 312 kts 231°
2026-05-05 17:59 51.43697 6.84560 11541 ft 302 kts 231°
2026-05-05 18:00 51.42437 6.81968 11225 ft 294 kts 236°
2026-05-05 18:00 51.41354 6.79218 10914 ft 287 kts 238°
2026-05-05 18:00 51.40316 6.76527 10614 ft 285 kts 238°
2026-05-05 18:00 51.39281 6.73852 10320 ft 284 kts 238°
2026-05-05 18:01 51.38125 6.71290 10023 ft 284 kts 233°
2026-05-05 18:01 51.36937 6.68796 9718 ft 284 kts 233°
2026-05-05 18:01 51.35738 6.66289 9314 ft 284 kts 233°
2026-05-05 18:01 51.34541 6.63792 8918 ft 284 kts 233°
2026-05-05 18:02 51.33345 6.61300 8519 ft 283 kts 233°
2026-05-05 18:02 51.32142 6.58790 8115 ft 282 kts 233°
2026-05-05 18:02 51.30962 6.56335 7717 ft 279 kts 233°
2026-05-05 18:02 51.29789 6.53885 7311 ft 277 kts 233°
2026-05-05 18:03 51.28632 6.51473 6906 ft 274 kts 233°
2026-05-05 18:03 51.27489 6.49085 6290 ft 270 kts 233°
2026-05-05 18:03 51.26364 6.46732 5735 ft 262 kts 233°
2026-05-05 18:03 51.25281 6.44458 5144 ft 258 kts 233°
2026-05-05 18:04 51.23922 6.42710 4566 ft 250 kts 196°
2026-05-05 18:04 51.22297 6.42671 4233 ft 231 kts 156°
2026-05-05 18:04 51.20940 6.43892 3872 ft 220 kts 144°
2026-05-05 18:04 51.19685 6.45248 3537 ft 221 kts 143°
2026-05-05 18:05 51.18460 6.46757 3143 ft 219 kts 123°
2026-05-05 18:05 51.17948 6.48886 3043 ft 202 kts 99°
2026-05-05 18:05 51.17757 6.51075 2990 ft 198 kts 94°
2026-05-05 18:05 51.17666 6.53287 3009 ft 202 kts 82°
2026-05-05 18:06 51.18218 6.55262 3017 ft 196 kts 54°
2026-05-05 18:06 51.18775 6.56428 3037 ft 197 kts 52°
2026-05-05 18:06 51.19891 6.58695 2790 ft 194 kts 52°
2026-05-05 18:06 51.20725 6.60345 2606 ft 187 kts 50°
2026-05-05 18:07 51.21539 6.61903 2427 ft 183 kts 50°
2026-05-05 18:07 51.22348 6.63468 2175 ft 180 kts 50°
2026-05-05 18:07 51.23103 6.64942 1922 ft 166 kts 49°
2026-05-05 18:07 51.23824 6.66367 1665 ft 165 kts 50°
2026-05-05 18:08 51.24544 6.67801 1478 ft 166 kts 50°
2026-05-05 18:08 51.25204 6.69333 1262 ft 172 kts 56°
2026-05-05 18:08 51.25891 6.70916 789 ft 173 kts 51°
2026-05-05 18:08 51.26601 6.72360 554 ft 156 kts 50°
2026-05-05 18:09 51.27211 6.73644 407 ft 139 kts 52°
2026-05-05 18:09 51.27784 6.74836 269 ft 131 kts 49°
2026-05-05 18:09 51.28328 6.75971 120 ft 124 kts 49°
2026-05-05 18:09 51.28667 6.76680 122 ft 55 kts 52°
2026-05-05 18:10 51.28864 6.77093 122 ft 38 kts 53°
2026-05-05 18:10 51.28979 6.77335 122 ft 26 kts 53°
2026-05-05 18:10 51.29017 6.77525 122 ft 14 kts 107°
2026-05-05 18:10 51.28976 6.77604 122 ft 8 kts 141°
2026-05-05 18:11 51.28944 6.77643 122 ft 0 kts 143°
2026-05-05 18:11 51.28937 6.77651 122 ft 2 kts 145°
2026-05-05 18:11 51.28916 6.77660 122 ft 4 kts 204°
2026-05-05 18:12 51.28890 6.77623 122 ft 6 kts 233°
2026-05-05 18:12 51.28856 6.77547 122 ft 10 kts 234°
2026-05-05 18:12 51.28810 6.77448 123 ft 11 kts 233°
2026-05-05 18:12 51.28762 6.77347 124 ft 11 kts 233°
2026-05-05 18:13 51.28712 6.77240 124 ft 12 kts 233°
2026-05-05 18:13 51.28654 6.77115 122 ft 14 kts 232°
2026-05-05 18:13 51.28591 6.76984 124 ft 14 kts 233°
2026-05-05 18:13 51.28528 6.76853 125 ft 15 kts 233°
2026-05-05 18:14 51.28460 6.76712 123 ft 17 kts 233°
2026-05-05 18:14 51.28387 6.76552 123 ft 18 kts 235°
2026-05-05 18:14 51.28312 6.76397 121 ft 3 kts 232°
2026-05-05 18:14 51.28310 6.76394 121 ft 1 kts 232°
2026-05-05 18:15 51.28297 6.76368 120 ft 4 kts 231°
2026-05-05 18:15 51.28267 6.76309 120 ft 8 kts 230°
2026-05-05 18:15 51.28218 6.76246 121 ft 10 kts 195°
2026-05-05 18:15 51.28153 6.76302 122 ft 10 kts 128°
2026-05-05 18:16 51.28115 6.76388 125 ft 7 kts 133°
2026-05-05 18:16 51.28080 6.76431 128 ft 5 kts 146°
2026-05-05 18:16 51.28059 6.76453 129 ft 2 kts 163°
2026-05-05 18:16 51.28045 6.76447 129 ft 3 kts 208°
2026-05-05 18:17 51.28019 6.76424 129 ft 5 kts 208°
2026-05-05 18:17 51.28009 6.76415 129 ft 1 kts 206°
2026-05-05 18:17 51.28004 6.76412 129 ft 0 kts 206°
2026-05-05 18:17 51.28003 6.76411 129 ft 0 kts 206°